2022-098R (53459 NORAD) Tracking and Keplerian Element Data

This shows tracking and keplerian element data for the satellite.

Feedback or suggestion? Click here.




ElementValue
Catalog53459
Name2022-098R
Epoch Orbit723
Epoch Day270.22525337
Epoch Year2022
RAAN5.7745
Inclination97.5305
Eccentricity0.0010569
Argument of Perigee124.2271
Mean Anonmoly320.1058
Mean Motion15.11134045
Decay Rate7.709E-05
L11 53459U 22098R 22270.22525337 .00007709 00000+0 46296-3 0 9991
L22 53459 97.5305 5.7745 0010569 124.2271 320.1058 15.11134045 7231

Live tracking and technical data element details for 2022-098R (NORAD 53459). 2022-098R can be tracked NOW for your location showing map with azimuth and elevation plus other details from your city location.

Track the satellite on the map from your city or location and see movement details for azimuth, elevation, latitude, longitude, range, height, and movement on the map or in text.







IsCatalogInMostPopularTable: catalog: 53459, numindb: 3
Update: records affected: 1



GetName: 53459 2022-098R

Hit Count: updated at: Wed, 28 Sep 2022 23:32:41 GMT